�������l�o���
Date,Time,MP-1(��Sv/h),MP-2(��Sv/h),MP-3(��Sv/h),MP-4(��Sv/h),MP-5(��Sv/h),MP-6(��Sv/h),MP-7(��Sv/h),MP-8(��Sv/h),����,����(m/s),���J
2020/07/16,00:00,0.632,0.881,0.571,1.066,0.745,0.383,0.641,0.609,�k�k��,5.0,�L
2020/07/16,00:10,0.632,0.885,0.570,1.069,0.748,0.382,0.640,0.609,�k�k��,4.3,�L
2020/07/16,00:20,0.633,0.888,0.572,1.067,0.745,0.384,0.641,0.609,�k�k��,5.0,�L
2020/07/16,00:30,0.634,0.887,0.573,1.073,0.747,0.384,0.640,0.610,�k�k��,3.8,�L
2020/07/16,00:40,0.634,0.889,0.571,1.071,0.748,0.381,0.642,0.611,�k�k��,5.1,�L
2020/07/16,00:50,0.634,0.888,0.573,1.072,0.748,0.381,0.643,0.612,�k�k��,4.9,�L
2020/07/16,01:00,0.633,0.887,0.571,1.073,0.746,0.384,0.642,0.611,�k�k��,5.6,�L
2020/07/16,01:10,0.635,0.885,0.571,1.071,0.746,0.384,0.643,0.613,�k�k��,5.1,�L
2020/07/16,01:20,0.631,0.886,0.571,1.071,0.744,0.383,0.640,0.611,�k�k��,5.1,�L
2020/07/16,01:30,0.634,0.886,0.573,1.071,0.746,0.382,0.642,0.609,�k�k��,5.7,�L
2020/07/16,01:40,0.633,0.889,0.571,1.071,0.744,0.383,0.641,0.610,�k�k��,5.4,�L
2020/07/16,01:50,0.633,0.884,0.573,1.066,0.745,0.384,0.641,0.610,�k�k��,5.4,�L
2020/07/16,02:00,0.631,0.883,0.569,1.069,0.744,0.384,0.641,0.611,�k�k��,5.2,�L
2020/07/16,02:10,0.632,0.884,0.571,1.069,0.746,0.383,0.641,0.612,�k�k��,4.7,�L
2020/07/16,02:20,0.635,0.885,0.573,1.070,0.745,0.384,0.643,0.611,�k�k��,4.6,�L
2020/07/16,02:30,0.634,0.886,0.572,1.073,0.746,0.382,0.641,0.610,�k�k��,4.8,�L
2020/07/16,02:40,0.633,0.885,0.573,1.073,0.743,0.383,0.644,0.610,�k�k��,4.1,�L
2020/07/16,02:50,0.635,0.886,0.571,1.069,0.745,0.382,0.643,0.611,�k�k��,4.3,�L
2020/07/16,03:00,0.633,0.885,0.571,1.072,0.743,0.383,0.643,0.611,�k,4.6,�L
2020/07/16,03:10,0.633,0.885,0.572,1.070,0.745,0.384,0.641,0.610,�k,4.2,�L
2020/07/16,03:20,0.632,0.883,0.571,1.068,0.745,0.385,0.640,0.609,�k,5.7,�L
2020/07/16,03:30,0.630,0.883,0.570,1.068,0.742,0.385,0.641,0.610,�k�k��,5.6,�L
2020/07/16,03:40,0.632,0.884,0.570,1.067,0.742,0.385,0.641,0.610,�k�k��,6.3,�L
2020/07/16,03:50,0.632,0.884,0.569,1.068,0.742,0.381,0.641,0.611,�k,5.1,�L
2020/07/16,04:00,0.632,0.883,0.570,1.068,0.744,0.384,0.641,0.610,�k�k��,3.3,�L
2020/07/16,04:10,0.631,0.882,0.569,1.069,0.743,0.382,0.642,0.609,�k�k��,3.7,�L
2020/07/16,04:20,0.631,0.883,0.567,1.067,0.741,0.380,0.640,0.610,�k�k��,3.7,�L
2020/07/16,04:30,0.629,0.880,0.566,1.066,0.741,0.380,0.641,0.609,�k,3.8,�L
2020/07/16,04:40,0.627,0.881,0.567,1.067,0.738,0.377,0.639,0.611,�k,4.4,�L
2020/07/16,04:50,0.627,0.880,0.566,1.067,0.742,0.379,0.641,0.610,�k�k��,4.0,�L
2020/07/16,05:00,0.628,0.880,0.565,1.066,0.740,0.378,0.640,0.609,�k,4.5,�L
2020/07/16,05:10,0.627,0.882,0.564,1.066,0.742,0.378,0.639,0.609,�k�k��,4.0,�L
2020/07/16,05:20,0.628,0.880,0.565,1.068,0.741,0.379,0.640,0.610,�k�k��,4.0,�L
2020/07/16,05:30,0.629,0.882,0.564,1.066,0.740,0.378,0.641,0.610,�k,3.8,�L
2020/07/16,05:40,0.626,0.882,0.564,1.066,0.738,0.378,0.640,0.609,�k,4.4,�L
2020/07/16,05:50,0.625,0.880,0.564,1.066,0.739,0.378,0.639,0.609,�k,4.1,�L
2020/07/16,06:00,0.624,0.877,0.564,1.060,0.737,0.377,0.637,0.609,�k�k��,3.7,�L
2020/07/16,06:10,0.625,0.874,0.566,1.060,0.737,0.379,0.637,0.607,�k�k��,3.5,�L
2020/07/16,06:20,0.626,0.876,0.565,1.061,0.738,0.378,0.640,0.610,�k�k��,4.2,�L
2020/07/16,06:30,0.627,0.879,0.566,1.065,0.737,0.379,0.640,0.610,�k�k��,3.6,�L
2020/07/16,06:40,0.628,0.881,0.568,1.066,0.741,0.377,0.639,0.607,�k�k��,3.4,�L
2020/07/16,06:50,0.629,0.880,0.568,1.067,0.742,0.379,0.638,0.608,�k�k��,3.8,�L
2020/07/16,07:00,0.629,0.880,0.568,1.066,0.741,0.378,0.640,0.609,�k�k��,3.3,�L
2020/07/16,07:10,0.627,0.880,0.566,1.067,0.741,0.380,0.639,0.607,�k�k��,3.5,�L
2020/07/16,07:20,0.626,0.879,0.566,1.068,0.740,0.379,0.640,0.607,�k,2.8,�L
2020/07/16,07:30,0.626,0.877,0.566,1.064,0.741,0.378,0.641,0.607,�k,2.6,�L
2020/07/16,07:40,0.625,0.877,0.563,1.064,0.740,0.379,0.640,0.609,�k�k��,3.4,�L
2020/07/16,07:50,0.626,0.875,0.563,1.066,0.739,0.378,0.639,0.607,�k,3.8,�L
2020/07/16,08:00,0.625,0.877,0.563,1.065,0.738,0.376,0.638,0.606,�k�k��,3.8,�L
2020/07/16,08:10,0.626,0.878,0.564,1.065,0.739,0.377,0.640,0.607,�k�k��,3.4,�L
2020/07/16,08:20,0.624,0.878,0.561,1.065,0.741,0.378,0.640,0.607,�k�k��,4.6,�L
2020/07/16,08:30,0.626,0.877,0.562,1.068,0.742,0.376,0.640,0.606,�k�k��,4.7,�L
2020/07/16,08:40,0.624,0.877,0.561,1.067,0.740,0.377,0.640,0.607,�k�k��,4.2,�L
2020/07/16,08:50,0.625,0.876,0.561,1.067,0.741,0.376,0.639,0.609,�k�k��,4.3,�L
2020/07/16,09:00,0.625,0.876,0.560,1.070,0.740,0.375,0.639,0.607,�k,3.9,�L
2020/07/16,09:10,0.627,0.878,0.561,1.071,0.741,0.376,0.640,0.606,�k�k��,3.6,�L
2020/07/16,09:20,0.626,0.879,0.564,1.070,0.743,0.376,0.641,0.611,�k�k��,3.0,�L
2020/07/16,09:30,0.629,0.879,0.565,1.072,0.742,0.377,0.641,0.608,�k��,2.8,��
2020/07/16,09:40,0.629,0.881,0.563,1.073,0.743,0.376,0.642,0.610,�k�k��,3.3,��
2020/07/16,09:50,0.628,0.879,0.564,1.074,0.744,0.376,0.643,0.610,�k��,3.5,�L
2020/07/16,10:00,0.630,0.883,0.562,1.076,0.746,0.377,0.644,0.609,�k�k��,4.2,��
2020/07/16,10:10,0.631,0.883,0.566,1.078,0.748,0.378,0.645,0.610,�k�k��,4.5,��
2020/07/16,10:20,0.632,0.886,0.566,1.077,0.747,0.379,0.643,0.610,�k�k��,4.9,��
2020/07/16,10:30,0.631,0.887,0.564,1.078,0.747,0.377,0.642,0.611,�k�k��,4.0,��
2020/07/16,10:40,0.633,0.887,0.565,1.079,0.747,0.375,0.644,0.611,�k�k��,4.4,�L
2020/07/16,10:50,0.634,0.889,0.566,1.080,0.749,0.378,0.643,0.611,�k�k��,4.4,�L
2020/07/16,11:00,0.633,0.888,0.565,1.082,0.748,0.380,0.646,0.611,�k�k��,5.1,�L
2020/07/16,11:10,0.634,0.893,0.565,1.082,0.749,0.379,0.646,0.612,�k�k��,4.9,�L
2020/07/16,11:20,0.634,0.889,0.566,1.082,0.751,0.379,0.647,0.611,�k�k��,5.4,��
2020/07/16,11:30,0.635,0.890,0.567,1.082,0.754,0.379,0.647,0.612,�k��,4.7,��
2020/07/16,11:40,0.635,0.895,0.569,1.083,0.754,0.379,0.646,0.612,�k��,4.4,��
2020/07/16,11:50,0.635,0.893,0.567,1.082,0.754,0.379,0.648,0.611,�k�k��,4.8,��
2020/07/16,12:00,0.635,0.896,0.568,1.083,0.754,0.380,0.647,0.611,�k�k��,5.2,��
2020/07/16,12:10,0.636,0.900,0.569,1.084,0.759,0.380,0.648,0.612,�k��,5.1,��
2020/07/16,12:20,0.637,0.899,0.570,1.084,0.756,0.380,0.650,0.613,�k��,4.7,��
2020/07/16,12:30,0.638,0.900,0.568,1.084,0.755,0.381,0.650,0.614,�k��,5.4,��
2020/07/16,12:40,0.637,0.902,0.570,1.083,0.756,0.381,0.650,0.613,�k��,4.1,��
2020/07/16,12:50,0.637,0.902,0.569,1.084,0.758,0.381,0.649,0.614,�k�k��,4.8,��
2020/07/16,13:00,0.638,0.900,0.571,1.086,0.759,0.380,0.649,0.613,�k��,4.4,��
2020/07/16,13:10,0.637,0.900,0.570,1.089,0.759,0.382,0.650,0.614,�k�k��,4.8,��
2020/07/16,13:20,0.638,0.900,0.570,1.088,0.760,0.382,0.649,0.613,�k��,4.0,��
2020/07/16,13:30,0.637,0.898,0.573,1.087,0.760,0.382,0.650,0.616,�k��,5.3,��
2020/07/16,13:40,0.637,0.900,0.572,1.087,0.760,0.380,0.649,0.614,�k��,5.5,��
2020/07/16,13:50,0.636,0.898,0.569,1.088,0.761,0.381,0.651,0.615,�k��,5.2,��
2020/07/16,14:00,0.638,0.899,0.571,1.090,0.760,0.382,0.652,0.614,�k��,5.3,��
2020/07/16,14:10,0.637,0.899,0.571,1.091,0.760,0.380,0.650,0.613,�k��,4.6,��
2020/07/16,14:20,0.637,0.901,0.570,1.092,0.763,0.381,0.653,0.614,�k��,4.2,��
2020/07/16,14:30,0.637,0.900,0.570,1.092,0.762,0.381,0.650,0.615,�k�k��,4.0,��
2020/07/16,14:40,0.639,0.900,0.571,1.093,0.763,0.381,0.650,0.616,�k��,4.1,��
2020/07/16,14:50,0.639,0.903,0.572,1.092,0.762,0.382,0.652,0.616,�k��,3.7,��
2020/07/16,15:00,0.639,0.902,0.571,1.092,0.765,0.382,0.651,0.614,�k��,4.0,��
2020/07/16,15:10,0.639,0.903,0.573,1.094,0.764,0.381,0.654,0.617,�k�k��,4.0,��
2020/07/16,15:20,0.639,0.902,0.571,1.095,0.764,0.383,0.651,0.615,�k�k��,4.2,��
2020/07/16,15:30,0.638,0.904,0.571,1.095,0.762,0.383,0.653,0.615,�k�k��,4.3,��
2020/07/16,15:40,0.639,0.904,0.572,1.097,0.763,0.382,0.653,0.615,�k��,4.0,��
2020/07/16,15:50,0.639,0.905,0.571,1.095,0.764,0.383,0.651,0.616,�k�k��,3.4,��
2020/07/16,16:00,0.637,0.905,0.571,1.095,0.764,0.382,0.652,0.616,�k�k��,3.1,��
2020/07/16,16:10,0.639,0.905,0.571,1.096,0.764,0.382,0.653,0.615,�k�k��,3.1,��
2020/07/16,16:20,0.637,0.908,0.570,1.094,0.764,0.382,0.653,0.615,�k�k��,2.8,��
2020/07/16,16:30,0.639,0.906,0.570,1.098,0.766,0.382,0.652,0.615,�k�k��,2.6,��
2020/07/16,16:40,0.638,0.906,0.571,1.099,0.764,0.382,0.652,0.616,�k�k��,2.8,��
2020/07/16,16:50,0.639,0.905,0.571,1.099,0.765,0.382,0.653,0.616,�k��,2.6,��
2020/07/16,17:00,0.639,0.908,0.571,1.098,0.766,0.382,0.652,0.617,�k�k��,2.3,��
2020/07/16,17:10,0.637,0.907,0.573,1.098,0.765,0.382,0.653,0.615,�k,2.3,��
2020/07/16,17:20,0.638,0.906,0.572,1.102,0.765,0.383,0.653,0.616,�k�k��,2.0,��
2020/07/16,17:30,0.639,0.909,0.573,1.099,0.766,0.381,0.654,0.617,�k,2.6,��
2020/07/16,17:40,0.640,0.908,0.572,1.101,0.767,0.384,0.653,0.616,�k�k��,2.6,��
2020/07/16,17:50,0.638,0.909,0.575,1.099,0.766,0.383,0.654,0.617,�k�k��,3.1,��
2020/07/16,18:00,0.639,0.909,0.574,1.100,0.768,0.382,0.653,0.617,�k�k��,2.9,��
2020/07/16,18:10,0.640,0.909,0.574,1.102,0.767,0.381,0.652,0.616,�k��,2.3,��
2020/07/16,18:20,0.641,0.909,0.574,1.102,0.767,0.383,0.653,0.618,�k�k��,2.0,��
2020/07/16,18:30,0.641,0.909,0.573,1.101,0.768,0.384,0.653,0.619,�k�k��,2.6,��
2020/07/16,18:40,0.639,0.910,0.575,1.102,0.768,0.382,0.653,0.619,�k�k��,2.6,��
2020/07/16,18:50,0.639,0.911,0.576,1.102,0.769,0.383,0.655,0.617,�k,2.8,��
2020/07/16,19:00,0.641,0.911,0.575,1.099,0.768,0.382,0.652,0.617,�k��,2.9,��
2020/07/16,19:10,0.640,0.911,0.574,1.101,0.771,0.383,0.654,0.620,�k�k��,2.6,��
2020/07/16,19:20,0.640,0.912,0.575,1.101,0.772,0.383,0.654,0.617,�k��,2.6,��
2020/07/16,19:30,0.640,0.913,0.577,1.102,0.772,0.383,0.654,0.617,�k�k��,3.1,��
2020/07/16,19:40,0.641,0.913,0.575,1.100,0.771,0.384,0.652,0.619,�k�k��,2.5,��
2020/07/16,19:50,0.641,0.911,0.575,1.102,0.771,0.383,0.654,0.618,�k,2.9,��
2020/07/16,20:00,0.641,0.911,0.575,1.100,0.769,0.383,0.654,0.619,�k,3.5,��
2020/07/16,20:10,0.642,0.913,0.575,1.101,0.773,0.384,0.653,0.618,�k,3.7,��
2020/07/16,20:20,0.643,0.913,0.576,1.100,0.773,0.384,0.654,0.618,�k�k��,3.6,��
2020/07/16,20:30,0.644,0.913,0.575,1.103,0.772,0.381,0.654,0.619,�k�k��,3.2,��
2020/07/16,20:40,0.644,0.914,0.576,1.102,0.773,0.383,0.655,0.620,�k,2.5,��
2020/07/16,20:50,0.643,0.914,0.576,1.103,0.770,0.383,0.655,0.620,�k,2.8,��
2020/07/16,21:00,0.639,0.914,0.575,1.101,0.773,0.384,0.654,0.621,�k,2.0,��
2020/07/16,21:10,0.642,0.915,0.576,1.104,0.773,0.383,0.656,0.619,�k�k��,2.2,��
2020/07/16,21:20,0.644,0.913,0.575,1.103,0.772,0.384,0.653,0.620,�k�k��,2.0,��
2020/07/16,21:30,0.644,0.912,0.575,1.105,0.773,0.383,0.656,0.620,�k,1.5,��
2020/07/16,21:40,0.643,0.913,0.575,1.102,0.774,0.385,0.651,0.618,�k�k��,1.9,��
2020/07/16,21:50,0.643,0.914,0.577,1.100,0.772,0.385,0.657,0.619,�k�k��,2.3,��
2020/07/16,22:00,0.643,0.914,0.575,1.103,0.773,0.384,0.655,0.619,�k�k��,2.3,��
2020/07/16,22:10,0.642,0.914,0.577,1.105,0.774,0.383,0.655,0.620,�k,2.6,��
2020/07/16,22:20,0.641,0.915,0.576,1.105,0.773,0.385,0.655,0.620,�k�k��,2.3,��
2020/07/16,22:30,0.643,0.914,0.575,1.103,0.773,0.383,0.655,0.620,�k,2.0,��
2020/07/16,22:40,0.642,0.915,0.574,1.104,0.773,0.384,0.654,0.620,�k,2.0,��
2020/07/16,22:50,0.642,0.914,0.575,1.103,0.775,0.383,0.656,0.618,�k,2.6,��
2020/07/16,23:00,0.643,0.915,0.575,1.104,0.774,0.384,0.655,0.619,�k,2.2,��
2020/07/16,23:10,0.642,0.914,0.576,1.102,0.774,0.384,0.656,0.619,�k,2.6,��
2020/07/16,23:20,0.643,0.915,0.576,1.103,0.774,0.384,0.654,0.619,�k,2.6,��
2020/07/16,23:30,0.642,0.917,0.576,1.107,0.773,0.384,0.655,0.621,�k,2.9,��
2020/07/16,23:40,0.644,0.915,0.576,1.104,0.775,0.385,0.654,0.620,�k�k��,2.6,��
2020/07/16,23:50,0.642,0.915,0.576,1.104,0.773,0.386,0.654,0.621,�k,2.3,��
